星链-31077 (STARLINK-31077 )

导读 | 豆包AI

STARLINK-31077是美国SpaceX公司星链(Starlink)星座中的卫星,于2023年12月23日发射入轨。星链是全球低轨卫星互联网星座,旨在为全球提供高速宽带互联网服务,尤其覆盖偏远、网络匮乏区域。该卫星属于量产型低轨通信卫星,采用平板设计与霍尔推进系统,具备自主避撞能力,服役寿命结束后会主动离轨在大气层焚毁,减少空间碎片影响,助力星链星座组网与全球互联网覆盖能力拓展。

Basic Information
目录编号:
58637
目录名称:
STARLINK-31077
国际标识:
2023-203V
轨道中心:
EARTH
卫星名称:
星链-31077
卫星全名:
星链-31077 (STARLINK-31077 )
卫星状态:
在轨 (已飞行859 天)
发射日期:
2023-12-23 UTC
国别 :
美国 (US)
星等 :
--
Orbit Information
数据来源 国际轨道数据 AOE轨道数据
星历时间 2026-04-30T15:30:41+0800
15小时前
查看轨道信息
2026-04-27T07:00:00+0800
3天前
查看轨道信息
半长轴 6861.145km 6861.21km
偏心率 0.0000826 0.0000669
轨道倾角 43.001° 42.999°
近地点辐角 262.431° 338.468°
升交点赤经 135.796° 154.744°
平近点角 97.645° 271.848°
近地点 482.441km 482.613km
远地点 483.575km 483.533km
周期 94.266分钟 94.267分钟
每日圈数 15.275938 15.275722
Detailed Information
固有亮度:
5
最大亮度:
0.3
卫星平台:
Starlink v2.0 mini
覆盖范围:
全球
运营商:
太空探索技术公司
运营商所在国:
美国
制造商(研发单位):
太空探索技术公司
制造商所在国:
美国
使用方式:
暂无
Satellite Introduction
星链(Starlink)计划是由太空探索技术公司(SpaceX)提出的一个巨型低轨卫星互联网星座项目,计划在2019年至2024年间在太空搭建由约1.2万颗卫星组成的“星链”网络,其中1584颗将部署在地球上空550千米处的近地轨道,并从2020年开始工作。该卫星仍在工作。
2D Orbit Map
3D Orbit Map
Orbit Altitude Analysis Chart
Orbit Inclination Analysis Chart
Orbit Comprehensive Analysis Chart
View Comprehensive Chart